Tracking 30703 objects as of 14-Jun-2025
HD Live streaming from Space Station
objects crossing your sky now

STARLINK-30315

Track STARLINK-30315 now!
10-day predictions
STARLINK-30315 is classified as:


NORAD ID: 57708
Int'l Code: 2023-129L
Perigee: 565.6 km
Apogee: 567.0 km
Inclination: 43.0 °
Period: 95.8 minutes
Semi major axis: 6937 km
RCS: Unknown
Launch date: August 27, 2023
Source: United States (US)
Launch site: AIR FORCE EASTERN TEST RANGE (AFETR)
Your satellite tracking list
Your tracking list is empty




NASA's NSSDC Master Catalog

Two Line Element Set (TLE):
1 57708U 23129L   25164.32384453 -.00001256  00000-0 -77937-4 0  9997
2 57708  43.0026 144.0521 0001041 273.8686  86.2037 15.02518288100138
Source of the keplerian elements: AFSPC